Regional Weather Roundup
Issued by NWS San Diego, CA

Home | Current Version | Previous Version | Text Only | Print | Product List | Glossary On
Versions: 1 2 3 4 5 6 7 8 9 10 11 12 13 14 15 16 17 18 19 20 21 22 23 24 25 26 27 28 29 30 31 32 33 34 35 36 37 38 39 40 41 42 43 44 45 46 47 48 49 50
000
ASUS46 KSGX 191810
RWRSGX

SAN DIEGO HOURLY WEATHER ROUNDUP
NATIONAL WEATHER SERVICE SAN DIEGO CA
1100 AM PDT FRI SEP 19 2014

NOTE: "FAIR" INDICATES FEW OR NO CLOUDS BELOW 12,000 FEET WITH NO
SIGNIFICANT WEATHER AND/OR OBSTRUCTIONS TO VISIBILITY.

CAZ042-043-060-061-PZZ750-775-191900-

GREATER SAN DIEGO AREA

CITY           SKY/WX    TMP DP  RH WIND       PRES   REMARKS
LINDBERGH FLD  PTSUNNY   75  61  61 NW9       29.92F
POINT LOMA       N/A     75  63  66 NW12        N/A
NATIONAL CITY    N/A     75  66  72 N3        29.91F
CHULA VISTA      N/A     74  67  77 W6        29.85S
IMPERIAL BEACH PTSUNNY   75  64  68 NW10      29.92S
BROWN FIELD    CLOUDY    72  64  76 W6        29.92F
MIRAMAR MCAS   PTSUNNY   75  61  61 NW7       29.92S
MONTGOMERY FLD PTSUNNY   74  62  66 NW6       29.92S

$$

NORTH SAN DIEGO COUNTY

CITY           SKY/WX    TMP DP  RH WIND       PRES   REMARKS
CAMP PENDLETON PTSUNNY   75  62  64 SW8       29.90F
OCEANSIDE AP   PTSUNNY   77  62  59 W5        29.90F
OCEANSIDE HBR    N/A     73  66  79 W9        29.93F
VISTA            N/A     73  65  74 SW1       29.89S
CARLSBAD       MOSUNNY   74  62  66 VRB7      29.91S
DEL MAR          N/A     75  65  71 CALM      29.93F
LA JOLLA SCRIP   N/A     71  65  82 NW2       29.89S
FALLBROOK        N/A     76  66  69 SW5       29.90F
ESCONDIDO        N/A     76  64  66 NE3       29.92S
SAN MARCOS       N/A     74  65  72 CALM      29.89S
POWAY            N/A     77  64  64 W7        29.91S

$$

EAST SAN DIEGO COUNTY

CITY           SKY/WX    TMP DP  RH WIND       PRES   REMARKS
RAMONA         CLOUDY    74  59  59 VRB7      29.94S
SANTEE LAKES     N/A     76  64  67 CALM      29.91F
LA MESA          N/A     75  65  72 CALM      29.85S
JAMUL            N/A     73  66  78 CALM      29.89S
DESCANSO N       N/A     71  59  66 W2        29.78S
MT. LAGUNA OBS   N/A     66  45  46 W3        29.68S
CAMPO            N/A     72  58  61 SW6       29.93F

$$

ORANGE COUNTY AND THE LOS ANGELES BASIN

CITY           SKY/WX    TMP DP  RH WIND       PRES   REMARKS
JOHN WAYNE AP  PTSUNNY   78  60  53 CALM      29.90F
LAGUNA BEACH     N/A    N/A  18   0 CALM      29.87F
LAKE FOREST FR   N/A     76  61  58 CALM      29.80F
SANTA ANA        N/A     76  65  68 CALM      29.85F
HUNTINGTON BCH   N/A     76  65  67 SW2       29.93F
LOS ALAMITOS   PTSUNNY   76  62  60 VRB1      29.90F
FULLERTON      PTSUNNY   76  60  57 S3        29.89F
LONG BEACH     MOSUNNY   76  60  57 SW3       29.90F
L.A. AP        PTSUNNY   76  60  57 VRB5      29.91F
L.A. DOWNTOWN  PTSUNNY   76  60  57 SE6       29.90F

$$

THE INLAND EMPIRE

CITY           SKY/WX    TMP DP  RH WIND       PRES   REMARKS
CORONA         CLOUDY    75  62  64 CALM      29.92F
CHINO          PTSUNNY   75  60  59 SE5       29.92F
ONTARIO        PTSUNNY   74  59  59 CALM      29.92F
SAN BERNARDINO CLOUDY    72  57  60 CALM      29.93F
RIVERSIDE AP   PTSUNNY   75  59  57 CALM      29.92F
RIV CYN CREST    N/A     73  69  87 NE2       29.89F
MORENO VALLEY    N/A     72  64  75 SW1       29.12F
MARCH ARB      MOSUNNY   74  58  58 S6        29.94S
HORSETHIEF CYN   N/A     73  57  57 NE2       29.91F
PERRIS           N/A     74  61  63 S2        29.92F
MENIFEE          N/A     74  63  66 W2        29.98F
HEMET EAST       N/A     69  58  70 CALM      29.89S
FRENCH VALLEY  CLOUDY    72  59  64 CALM      29.94S
TEMECULA         N/A     74  63  70 SW3       29.89S

$$

SAN BERNARDINO AND RIVERSIDE COUNTY MOUNTAINS

CITY           SKY/WX    TMP DP  RH WIND       PRES   REMARKS
BIG BEAR AP    SUNNY     63  43  48 E9G16     30.13S
ANGELUS OAKS     N/A     62  49  62 CALM      29.77S
PINE COVE        N/A     68  53  57 CALM      29.75S

$$

SOUTHERN DESERT INCLUDING THE COACHELLA VALLEY

CITY           SKY/WX    TMP DP  RH WIND       PRES   REMARKS
PALM SPRINGS   SUNNY     89  56  32 NW8       29.83S
THOUSAND PALMS   N/A     88  58  35 NW7       29.78S
PALM DESERT      N/A     90  61  37 CALM      26.21S
THERMAL        SUNNY     90  57  32 VRB5      29.77S
BLYTHE         SUNNY     89  60  37 NE5       29.81S
IMPERIAL AP    SUNNY     91  56  30 W8        29.79S
EL CENTRO NAS  MOSUNNY   91  54  28 SW8       29.79S
YUMA AZ        MOSUNNY   93  53  25 NW10      29.81S
MEXICALI       SUNNY     90  54  29 N8        29.81

$$

UPPER DESERT

CITY           SKY/WX    TMP DP  RH WIND       PRES   REMARKS
VICTORVILLE AP SUNNY     75  48  38 CALM      29.96S
HESPERIA         N/A     73  56  56 W2        29.94F
APPLE VALLEY     N/A     78  51  38 CALM      30.02F
PALMDALE       SUNNY     76  51  41 CALM      29.93F
LANCASTER      SUNNY     78  50  37 VRB3      29.93S
EDWARDS AFB    MOSUNNY   77  50  39 SW5       29.91S
DAGGETT        SUNNY     80  53  39 NW10      29.91F
29 PALMS N     SUNNY     83  50  31 NW7       29.97S
NEEDLES        SUNNY     94  51  23 VRB3      29.82S

$$

REGIONAL REPORTS

CITY           SKY/WX    TMP DP  RH WIND       PRES   REMARKS
SANTA BARBARA  MOSUNNY   70  62  76 S9        29.91S
SANDBERG       SUNNY     70  51  51 N14G23    30.04R
MT. WILSON       N/A     68  54  60 W1          N/A
LAS VEGAS NV   MOSUNNY   87  46  24 S9        29.86S
PHOENIX AZ     MOSUNNY   91  66  43 VRB6      29.83F
TIJUANA        CLOUDY    70  63  78 W8        29.95S

$$

OFFSHORE ISLANDS

CITY           SKY/WX    TMP DP  RH WIND       PRES   REMARKS
CATALINA ARPT  CLOUDY    69  57  65 E7        29.95S
SAN CLEMENTE I PTSUNNY   71  56  58 SW6       29.94S
SAN NICOLAS IS MOSUNNY   70  56  61 NW17      29.92S

$$

MARINE AND OFFSHORE BUOY REPORTS

STATION/POSITION SKY/WX   TEMP    WIND        PRES    SWELL
                          AIR SEA DIR/SP/G            HT/PER/DIR
                          (F)     (DEG/KT/KT) (MB)    (FT/S/D)
TANNER BANKS               67 70  310/  8/ 10 1013.5R   7/300/12
S CLEMENTE BASIN           70 74  320/  6/  8 1013.1S   5/200/15
SAN NICOLAS IS.               68                N/A     5/190/14
SO. S. ROSA ISLA           67 69  340/ 14/ 16 1012.5F   7/11
W. S. BARBARA CH           62 60  300/  6/  8 1012.2F   5/290/11
M. S. BARBARA CH           65 65   50/  4/  8 1013.0R
S. MONICA BASIN            69 72  110/ 10/ 12 1012.3F   3/190/15
S PEDRO CHANNEL               73                N/A     2/180/14
DANA POINT                    71                N/A     3/200/15
CMP PENDLETON NS              71                N/A     3/210/15
OCEANSIDE OFFSHR              73                N/A     3/210/14
TORREY PINES OTR              73                N/A     3/210/15
LA JOLLA 1                 72 67  310/  6/  7 1013.2S
MISSION BAY BUOY              72                N/A     2/210/15
SAN DIEGO BAY                 75              1013.4F

$$



USA.gov is the U.S. government's official web portal to all federal, state and local government web resources and services.